Regional Weather Roundup
Issued by NWS

Home | Current Version | Previous Version | Text Only | Print | Product List | Glossary On
Versions: 1 2 3 4 5 6 7 8 9 10 11 12 13 14 15 16 17 18 19 20 21 22 23 24 25 26 27 28 29 30 31 32 33 34 35 36 37 38 39 40 41 42 43 44 45 46 47 48 49 50
000
ASUS44 KFWD 181703
RWRTX
NORTH TEXAS HOURLY WEATHER ROUNDUP
NATIONAL WEATHER SERVICE FORT WORTH TX
1200 PM CDT FRI AUG 18 2017

NOTE: "FAIR" INDICATES FEW OR NO CLOUDS BELOW 12,000 FEET WITH NO
SIGNIFICANT WEATHER AND/OR OBSTRUCTIONS TO VISIBILITY.

TXZ118-119-181800-
DALLAS/FORT WORTH METROPLEX

CITY           SKY/WX    TMP DP  RH WIND       PRES   REMARKS
DFW AIRPORT    PTSUNNY   91  73  55 VRB7      30.04S HX  99
DALLAS LOVE    PTSUNNY   90  73  57 SW6       30.04F HX  98
FTW MEACHAM    MOSUNNY   87  76  69 W7        30.05S HX  97
DAL-EXECUTIVE  MOSUNNY   88  75  65 MISG      30.05S HX  97
FTW-ALLIANCE   PTSUNNY   88  74  63 SW9       30.05S HX  96
FTW-NAS-JRB    CLOUDY    87  73  62 SW7       30.06S HX  94
FTW-SPINKS     PTSUNNY   88  72  58 W13G21    30.08R HX  94
ARLINGTON      SUNNY     88  75  65 SW8       30.05F HX  97
GRAND PRAIRIE  SUNNY     88  70  55 SW3       30.06F HX  92
MESQUITE       MOSUNNY   88  72  58 SW8       30.05F HX  94
LANCASTER      PTSUNNY   87  73  62 W7        30.06S HX  93
$$

TXZ091>094-102>105-117-120-121-131>134-181800-
NORTH CENTRAL TEXAS

CITY           SKY/WX    TMP DP  RH WIND       PRES   REMARKS
SHRMAN/DENISON MOSUNNY   85  73  66 SW6       30.06S HX  92
GAINESVILLE    MOSUNNY   84  69  60 SW10      30.09R
BOWIE          MOSUNNY   74  71  89 SE3       30.07F
BRIDGEPORT     HVY RAIN  74  74 100 S7        30.12R VSB 1
DECATUR        CLOUDY    79  69  71 W10       30.10R
DENTON         CLOUDY    84  73  69 SW7       30.06R HX  90
MCKINNEY       PTSUNNY   86  76  71 SW6       30.05F HX  96
BONHAM         CLOUDY    84  73  70 S5        30.04F HX  91
ROCKWALL       PTSUNNY   86  75  69 SW7       30.05F HX  95
TERRELL        MOSUNNY   88  73  61 SW8       30.06S HX  95
WAXAHACHIE     PTSUNNY   86  74  67 SW7       30.08R HX  94
CLEBURNE       PTSUNNY   86  77  74 W10       30.09R HX  97
GRANBURY       CLOUDY    87  73  63 NW10      30.07F HX  94
$$

TXZ083>090-098>101-113>116-127>130-139>142-154-155-181800-
WESTERN NORTH TEXAS

CITY           SKY/WX    TMP DP  RH WIND       PRES   REMARKS
WICHITA FALLS  MOSUNNY   84  71  65 E7        30.05F
WF-KICKAPOO    SUNNY     84  72  65 E3        30.08S HX  90
VERNON         SUNNY     86  57  37 SE6       30.06F
ABILENE        CLOUDY    83  70  64 CALM      30.12R
GRAHAM         PTSUNNY   82  71  68 SE9       30.08F
BRECKENRIDGE   CLOUDY    86  70  58 NW8       30.09S HX  90
CISCO          MOSUNNY   82  75  78 W8        30.11S
EASTLAND       PTSUNNY   82  73  72 NW3       30.10S
RANGER         PTSUNNY   77  74  90 CALM      30.11S
MINERAL WELLS  LGT RAIN  76  72  87 CALM      30.07F FOG
STEPHENVILLE   SUNNY     88  69  54 W8        30.12S HX  92
COMANCHE       SUNNY     89  70  53 W6        30.09F HX  94
BROWNWOOD      CLOUDY    86  68  54 SW9       30.09F
COLEMAN        PTSUNNY   85  70  60 S7        30.11S
$$

TXZ143>147-156>162-174-175-181800-
CENTRAL TEXAS

CITY           SKY/WX    TMP DP  RH WIND       PRES   REMARKS
WACO           SUNNY     90  71  53 SW6       30.04F HX  96
WACO-TSTC      SUNNY     91  68  46 SW8       30.05F HX  95
WACO-MCGREGOR  SUNNY     94  71  47 SW7G17    30.05F HX 101
HILLSBORO      SUNNY     87  75  66 SW8       30.06F HX  97
CORSICANA      SUNNY     90  72  55 SW8       30.06F HX  97
MEXIA          SUNNY     90  72  55 SW8       30.05F HX  97
HEARNE         SUNNY     89  73  58 SW9       30.06F HX  96
CAMERON        SUNNY     90  72  54 SW10G26   30.05F HX  97
TEMPLE         SUNNY     92  72  51 SW14      30.06F HX  99
KILLEEN        SUNNY     89  69  50 S9        30.06F HX  94
KILLEEN-SKYLRK SUNNY     89  71  55 S6        30.06F HX  95
FORT HOOD      SUNNY    N/A N/A N/A SW8       30.03F
HAMILTON       SUNNY     88  70  54 W5        30.09F HX  92
LAMPASAS       SUNNY     91  72  54 SW10G17   30.07F HX  98
$$

TXZ095>097-106>112-122>126-135>138-148>153-164>167-181800-
EAST TEXAS

CITY           SKY/WX    TMP DP  RH WIND       PRES   REMARKS
PARIS          CLOUDY    88  79  74 SW8       30.05F HX 103
SULPHUR SPRNGS CLOUDY    87  74  64 SW7       30.07F HX  95
MOUNT PLEASANT SUNNY     88  72  58 SW10      30.06F HX  95
GILMER         SUNNY     87  73  62 SW6       30.06F HX  93
MINEOLA        MOSUNNY   86  72  62 W9G17     30.06F HX  92
TYLER          MOSUNNY   87  74  64 SW10      30.06F HX  95
LONGVIEW       MOSUNNY   89  77  67 NW9       30.05F HX 101
MARSHALL         N/A     87  73  62 W7        30.07F HX  95
ATHENS         MOSUNNY   86  72  62 CALM      30.05F HX  92
PALESTINE      SUNNY     91  73  54 SW8G18    30.07F HX  99
JACKSONVILLE   SUNNY     87  74  63 W9        30.10S HX  95
HENDERSON      PTSUNNY   86  73  65 SW7       30.08S HX  92
CENTER         CLOUDY    90  77  65 W6        30.07F HX 104
NACOGDOCHES    MOSUNNY   90  75  62 SW10      30.07F HX 100
LUFKIN         MOSUNNY   89  74  60 SW10      30.06F HX  98
$$

SUPPLEMENTAL OBSERVATIONS (NWS FORT WORTH AREA)

CITY           SKY/WX    TMP DP  RH WIND       PRES   REMARKS
$$

SUPPLEMENTAL OBSERVATIONS (NWS NORMAN AREA)

CITY           SKY/WX    TMP DP  RH WIND       PRES   REMARKS
GOODLETT         N/A     85  61  44 SE8       30.07F
ODELL            N/A     86  65  49 SE9       30.06F
CROWELL          N/A     86  63  46 E10       30.10F
KNOX CITY        N/A     85  66  52 N7        30.10F
SEYMOUR          N/A     86  68  54 SE3       30.09F
$$

SUPPLEMENTAL OBSERVATIONS (NWS SAN ANGELO AREA)

CITY           SKY/WX    TMP DP  RH WIND       PRES   REMARKS
WEINERT          N/A     81  72  74 SE5       30.11S
HASKELL          N/A     79  69  73 N5        30.11F
THROCKMORTON     N/A     85  70  60 E2        30.11F
STAMFORD         N/A     84  70  62 SE2       30.12F
CLYDE            N/A     86  72  64 NW7G13    30.14S HX  92
$$

SUPPLEMENTAL OBSERVATIONS (NWS SHREVEPORT AREA)

CITY           SKY/WX    TMP DP  RH WIND       PRES   REMARKS
$$

SUPPLEMENTAL OBSERVATIONS ARE A COLLECTION OF AUTOMATED INSTRUMENTS
THAT ARE MAINTAINED BY A VARIETY OF FEDERAL AND STATE AGENCIES.
CERTAIN ELEMENTS...SUCH AS HUMIDITY VALUES AND SUSTAINED WIND
SPEEDS...MAY BE APPROXIMATED.




USA.gov is the U.S. government's official web portal to all federal, state and local government web resources and services.